RYR1C EGFF-EIDW

Flight info

Callsign RYR1C
Flight time 0h 40m
Altitude 24000
Route BCN P4 FELCA L9 NICXI M17 VATRY VATRY4L
Aircraft B738/M-SDE2E3FGHIRWXY/LB1

Departure

Time 2026-04-30 18:18
Airport Cardiff International Airport (EGFF)

Arrival

Time 2026-04-30 18:58
Airport Dublin Airport (EIDW)
Time Latitude Longitude Altitude Speed Heading
2026-04-30 17:53 51.39806 -3.33936 220 ft 0 kts 83°
2026-04-30 18:11 51.39800 -3.34003 221 ft 4 kts 79°
2026-04-30 18:12 51.39788 -3.34074 223 ft 0 kts 67°
2026-04-30 18:15 51.39801 -3.34100 222 ft 5 kts 248°
2026-04-30 18:15 51.39848 -3.34336 223 ft 12 kts 297°
2026-04-30 18:16 51.39951 -3.34665 220 ft 20 kts 297°
2026-04-30 18:16 51.40080 -3.35073 217 ft 20 kts 298°
2026-04-30 18:17 51.40142 -3.35267 217 ft 19 kts 297°
2026-04-30 18:17 51.40136 -3.35450 220 ft 13 kts 235°
2026-04-30 18:17 51.40007 -3.35435 218 ft 19 kts 115°
2026-04-30 18:18 51.39831 -3.34871 220 ft 92 kts 117°
2026-04-30 18:18 51.39445 -3.33645 269 ft 149 kts 118°
2026-04-30 18:18 51.38932 -3.32121 981 ft 154 kts 120°
2026-04-30 18:18 51.38406 -3.30725 2086 ft 141 kts 122°
2026-04-30 18:19 51.37971 -3.29291 2788 ft 153 kts 116°
2026-04-30 18:19 51.37507 -3.27601 3173 ft 179 kts 117°
2026-04-30 18:19 51.37012 -3.25737 3760 ft 185 kts 117°
2026-04-30 18:19 51.36454 -3.23840 4212 ft 198 kts 119°
2026-04-30 18:20 51.35820 -3.21724 4414 ft 223 kts 115°
2026-04-30 18:20 51.35470 -3.19229 4880 ft 240 kts 97°
2026-04-30 18:20 51.35673 -3.16414 5237 ft 267 kts 75°
2026-04-30 18:20 51.36565 -3.13764 5835 ft 277 kts 53°
2026-04-30 18:21 51.38103 -3.11839 5972 ft 286 kts 26°
2026-04-30 18:21 51.40027 -3.11222 5996 ft 291 kts 358°
2026-04-30 18:21 51.42008 -3.11900 6049 ft 294 kts 342°
2026-04-30 18:21 51.43973 -3.12932 6549 ft 300 kts 341°
2026-04-30 18:22 51.45988 -3.13997 6386 ft 304 kts 342°
2026-04-30 18:22 51.49853 -3.15861 6957 ft 288 kts 344°
2026-04-30 18:22 51.51814 -3.16770 7339 ft 294 kts 344°
2026-04-30 18:23 51.53792 -3.17678 8082 ft 298 kts 344°
2026-04-30 18:23 51.55814 -3.18604 8745 ft 308 kts 344°
2026-04-30 18:23 51.57912 -3.19565 8726 ft 312 kts 344°
2026-04-30 18:23 51.59971 -3.20510 9235 ft 313 kts 344°
2026-04-30 18:24 51.64174 -3.22439 10911 ft 316 kts 344°
2026-04-30 18:24 51.65588 -3.23085 11351 ft 321 kts 344°
2026-04-30 18:24 51.67794 -3.24095 11739 ft 341 kts 344°
2026-04-30 18:25 51.70158 -3.25185 11930 ft 365 kts 342°
2026-04-30 18:25 51.74173 -3.30347 12829 ft 382 kts 298°
2026-04-30 18:25 51.75480 -3.34080 13649 ft 383 kts 295°
2026-04-30 18:26 51.78128 -3.41704 14997 ft 395 kts 296°
2026-04-30 18:26 51.79494 -3.45576 15729 ft 397 kts 294°
2026-04-30 18:26 51.80531 -3.49701 16424 ft 396 kts 283°
2026-04-30 18:27 51.82002 -3.58377 17791 ft 405 kts 280°
2026-04-30 18:27 51.82726 -3.62741 18460 ft 410 kts 281°
2026-04-30 18:28 51.84275 -3.71696 19712 ft 416 kts 282°
2026-04-30 18:28 51.85075 -3.76215 20344 ft 419 kts 282°
2026-04-30 18:28 51.86662 -3.85365 21567 ft 424 kts 279°
2026-04-30 18:29 51.87276 -3.90043 22162 ft 426 kts 276°
2026-04-30 18:29 51.88929 -4.04132 23862 ft 434 kts 277°
2026-04-30 18:30 51.90139 -4.13725 24077 ft 437 kts 277°
2026-04-30 18:30 51.91364 -4.23395 24097 ft 437 kts 277°
2026-04-30 18:31 51.91962 -4.28169 24090 ft 437 kts 277°
2026-04-30 18:31 51.93160 -4.37827 24089 ft 437 kts 277°
2026-04-30 18:32 51.94348 -4.47484 24085 ft 437 kts 277°
2026-04-30 18:32 51.94937 -4.52299 24079 ft 436 kts 277°
2026-04-30 18:32 51.96112 -4.61962 24078 ft 435 kts 276°
2026-04-30 18:33 51.96689 -4.66734 24075 ft 435 kts 276°
2026-04-30 18:33 51.97851 -4.76398 24075 ft 435 kts 276°
2026-04-30 18:33 51.98421 -4.81168 24073 ft 435 kts 276°
2026-04-30 18:34 51.98998 -4.86003 24075 ft 435 kts 276°
2026-04-30 18:34 52.00141 -4.95634 24086 ft 436 kts 276°
2026-04-30 18:34 52.00793 -5.00303 24058 ft 442 kts 285°
2026-04-30 18:35 52.02270 -5.04668 24084 ft 448 kts 305°
2026-04-30 18:35 52.04510 -5.08150 24057 ft 439 kts 324°
2026-04-30 18:35 52.07131 -5.10458 24083 ft 425 kts 333°
2026-04-30 18:36 52.12301 -5.14413 24047 ft 397 kts 333°
2026-04-30 18:36 52.14754 -5.16370 24059 ft 383 kts 332°
2026-04-30 18:36 52.19352 -5.20132 24051 ft 358 kts 332°
2026-04-30 18:37 52.21522 -5.21922 24051 ft 346 kts 331°
2026-04-30 18:37 52.23645 -5.23673 24052 ft 335 kts 331°
2026-04-30 18:37 52.25700 -5.25368 24062 ft 331 kts 331°
2026-04-30 18:37 52.27786 -5.27092 24087 ft 336 kts 331°
2026-04-30 18:38 52.29873 -5.28818 24096 ft 341 kts 331°
2026-04-30 18:38 52.32005 -5.30581 24089 ft 342 kts 331°
2026-04-30 18:38 52.34118 -5.32327 24070 ft 340 kts 331°
2026-04-30 18:38 52.36219 -5.34065 24072 ft 339 kts 331°
2026-04-30 18:39 52.38337 -5.35819 24075 ft 338 kts 331°
2026-04-30 18:39 52.40417 -5.37544 24074 ft 337 kts 331°
2026-04-30 18:39 52.42525 -5.39292 24073 ft 336 kts 331°
2026-04-30 18:39 52.44601 -5.41014 24080 ft 336 kts 331°
2026-04-30 18:40 52.46690 -5.42747 24088 ft 336 kts 331°
2026-04-30 18:40 52.48759 -5.44467 24088 ft 336 kts 331°
2026-04-30 18:40 52.50857 -5.46211 24089 ft 337 kts 331°
2026-04-30 18:40 52.52960 -5.47963 24092 ft 338 kts 331°
2026-04-30 18:41 52.55035 -5.49691 24091 ft 339 kts 332°
2026-04-30 18:41 52.57245 -5.51194 24101 ft 350 kts 341°
2026-04-30 18:41 52.59624 -5.52384 24096 ft 369 kts 343°
2026-04-30 18:41 52.62231 -5.53607 23525 ft 407 kts 344°
2026-04-30 18:42 52.65008 -5.54937 22898 ft 417 kts 343°
2026-04-30 18:42 52.70556 -5.57747 21652 ft 422 kts 342°
2026-04-30 18:42 52.73342 -5.59190 21048 ft 423 kts 342°
2026-04-30 18:45 53.00849 -5.73596 15200 ft 390 kts 342°
2026-04-30 18:45 53.03419 -5.74950 14605 ft 384 kts 342°
2026-04-30 18:45 53.05943 -5.76282 14013 ft 378 kts 342°
2026-04-30 18:46 53.08451 -5.77605 13356 ft 373 kts 343°
2026-04-30 18:46 53.10967 -5.78285 12678 ft 366 kts
2026-04-30 18:46 53.13377 -5.77393 12059 ft 354 kts 27°
2026-04-30 18:46 53.15444 -5.75278 11457 ft 341 kts 45°
2026-04-30 18:47 53.16995 -5.72446 10841 ft 328 kts 62°
2026-04-30 18:47 53.18145 -5.69197 10274 ft 321 kts 66°
2026-04-30 18:47 53.19208 -5.65987 10092 ft 311 kts 66°
2026-04-30 18:47 53.20503 -5.63093 9836 ft 316 kts 45°
2026-04-30 18:48 53.22264 -5.60930 9662 ft 310 kts 40°
2026-04-30 18:48 53.23983 -5.58887 9533 ft 300 kts 41°
2026-04-30 18:48 53.25628 -5.56893 9411 ft 284 kts 41°
2026-04-30 18:48 53.27187 -5.54981 9286 ft 270 kts 42°
2026-04-30 18:49 53.28684 -5.53166 8979 ft 267 kts 37°
2026-04-30 18:49 53.30455 -5.52076 8608 ft 277 kts 14°
2026-04-30 18:49 53.32339 -5.51457 8403 ft 274 kts 15°
2026-04-30 18:49 53.34235 -5.51254 8118 ft 277 kts 348°
2026-04-30 18:50 53.35911 -5.52757 7839 ft 273 kts 309°
2026-04-30 18:50 53.36974 -5.55301 7529 ft 264 kts 299°
2026-04-30 18:50 53.38002 -5.57825 7126 ft 266 kts 301°
2026-04-30 18:50 53.39080 -5.60391 6766 ft 266 kts 301°
2026-04-30 18:51 53.40139 -5.62884 6526 ft 265 kts 301°
2026-04-30 18:51 53.41211 -5.65390 6213 ft 267 kts 302°
2026-04-30 18:51 53.42313 -5.67955 5783 ft 274 kts 302°
2026-04-30 18:51 53.43446 -5.70588 5359 ft 280 kts 303°
2026-04-30 18:52 53.44596 -5.73259 4943 ft 285 kts 303°
2026-04-30 18:52 53.45766 -5.75979 4593 ft 287 kts 303°
2026-04-30 18:52 53.46588 -5.78963 4307 ft 278 kts 275°
2026-04-30 18:52 53.46484 -5.82078 4147 ft 261 kts 248°
2026-04-30 18:53 53.45749 -5.84734 3950 ft 247 kts 227°
2026-04-30 18:53 53.44637 -5.86853 3792 ft 238 kts 220°
2026-04-30 18:53 53.43513 -5.88853 3618 ft 232 kts 220°
2026-04-30 18:53 53.42442 -5.90762 3476 ft 222 kts 220°
2026-04-30 18:54 53.41403 -5.92619 3290 ft 213 kts 220°
2026-04-30 18:54 53.40542 -5.94601 3097 ft 213 kts 246°
2026-04-30 18:54 53.40434 -5.97041 3056 ft 206 kts 268°
2026-04-30 18:54 53.40560 -5.99358 2994 ft 192 kts 270°
2026-04-30 18:55 53.40696 -6.01513 2974 ft 196 kts 272°
2026-04-30 18:55 53.41022 -6.05990 2458 ft 188 kts 270°
2026-04-30 18:55 53.41135 -6.08140 2216 ft 187 kts 269°
2026-04-30 18:56 53.41355 -6.12348 1744 ft 176 kts 270°
2026-04-30 18:56 53.41460 -6.14350 1494 ft 169 kts 270°
2026-04-30 18:56 53.41562 -6.16289 1286 ft 166 kts 270°
2026-04-30 18:57 53.41744 -6.20054 899 ft 164 kts 272°
2026-04-30 18:57 53.41827 -6.21966 651 ft 164 kts 275°
2026-04-30 18:57 53.41957 -6.23839 404 ft 157 kts 271°
2026-04-30 18:58 53.42139 -6.27133 211 ft 117 kts 276°
2026-04-30 18:58 53.42209 -6.27881 215 ft 31 kts 303°
2026-04-30 18:58 53.42280 -6.28080 211 ft 18 kts 302°
2026-04-30 18:59 53.42352 -6.27857 216 ft 17 kts 95°
2026-04-30 19:00 53.42318 -6.27236 210 ft 23 kts 95°
2026-04-30 19:00 53.42302 -6.26947 210 ft 27 kts 95°
2026-04-30 19:00 53.42267 -6.26302 210 ft 19 kts 94°
2026-04-30 19:01 53.42393 -6.25939 210 ft 18 kts 45°
2026-04-30 19:01 53.42478 -6.25792 214 ft 17 kts 45°
2026-04-30 19:02 53.42642 -6.25512 210 ft 16 kts 46°
2026-04-30 19:02 53.42811 -6.25264 210 ft 17 kts 357°
2026-04-30 19:03 53.43021 -6.25408 214 ft 16 kts 335°
2026-04-30 19:03 53.43199 -6.25427 210 ft 15 kts 64°
2026-04-30 19:04 53.43223 -6.25114 210 ft 13 kts 95°
2026-04-30 19:04 53.43162 -6.24975 210 ft 8 kts 186°
2026-04-30 19:05 53.43111 -6.24983 217 ft 0 kts 185°